Погода в Любицком

Украина / Запорожская область     47°45′59″N   35°57′24″E
темп.,
°C
ветер,
м/с
пор.,
м/с
влажн.,
%
обл.,
%
осадки,
мм/ч
давл.,
гПа
погр.,
м
4 марта, чт
чт423:000зсз34760 0.0 102574
02:000зюз34830 0.0 102585
05:00−1юз48830 0.0 1023205
08:00+2юз610730 0.0 1022412
11:00+7юз8115329 0.0 10191092
14:00+9зюз9135514 0.0 10171278
17:00+7юз7136832 0.0 1015637
20:00+4юз8167259 0.0 1014607
5 марта, пт
пт523:00+3юз8168438 0.0 1013580
02:00+3юз7149153 0.0 1013501
05:00+3юз6129492 0.0 1013440
08:00+4зюз699496 0.0 1013421
11:00+6юз4586100 0.1 1013435
14:00+7ююз4680100 0.2 1012676
17:00+6ююв3785100 0.0 1010253
20:00+6ююз4983100 0.0 1011246
6 марта, сб
сб623:00+6з3591100 0.0 1011114
02:00+5сз5994100 1.1 1012446
05:00+2сз61096100 1.4 1014491
08:00+1ссз7982100 1.6 1016634
11:00+2ссз7963100 0.0 10191138
14:00+3ссз81051100 0.0 10191830
17:00+1сз694564 0.0 10211777
20:00−2ссз6106575 0.1 10241156
7 марта, вс
вс723:00−2сз595312 0.0 10261235
02:00−3сз48586 0.0 10261034
05:00−3з37610 0.0 1027481
08:00−1з57490 0.0 10271053
11:00+1зюз79390 0.0 10251248
14:00+3зюз912430 0.0 10221392
17:00+1зюз613520 0.0 1020701
20:000юз715640 0.0 1019462
8 марта, пн
пн823:00−1юз716670 0.0 1018572
02:00−1зюз714750 0.0 1016452
05:00−1зюз7147922 0.0 1015426
08:00+1зюз7126729 0.0 1015629
11:00+5зюз811490 0.0 10141456
14:00+6зюз912460 0.0 10141746
17:00+4з5105545 0.0 1013380
20:000ссз358549 0.0 1014130